User: anonymous   Login
Location: Unspecified
(0.0000°N, 0.0000°E)
Time: 22:08:54
(UTC+01:00)
Language:

Centaur D-1AR AC-41 - Orbit

View from above orbital plane
View from above orbital plane
View from above satellite
View from above satellite

Ground track
Ground track

The orbit data is extracted from the following two-line orbital elements,

1 10976U 78068B   15029.49079403  .00000014  00000-0 -39446-3 0  5716
2 10976 021.1386 142.9746 7182365 084.6416 359.5729 02.22298294296906
Epoch (UTC): 29 January 2015 11:46:44
Eccentricity: 0.7182365
inclination: 21.1386°
perigee height: 609 km
apogee height: 36233 km
right ascension of ascending node: 142.9746°
argument of perigee: 84.6416°
revolutions per day: 2.22298294
mean anomaly at epoch: 359.5729°
orbit number at epoch: 29690

The dashed part of the orbit path shows where the satellite is in the earth's shadow,  

DLR